Location: Unspecified
(0.0000°N, 0.0000°E)
Time: 09:16:16
(UTC+00:00)

Vanguard 3 - Pass Details

Date: 29 September 2023
Orbit: 507 x 3241 km, 33.3° (Epoch: 06 December)

Event Time Altitude Azimuth Distance (km) Brightness Sun altitude
Rises 16:18:59 0° 253° (WSW) 7,202 13.3 22.8°
Reaches altitude 10° 16:24:34 10° 260° (W) 6,100 13.7 21.4°
Maximum altitude 16:41:04 39° 321° (NW) 3,463 11.0 17.3°
Drops below altitude 10° 16:52:25 10° 26° (NNE) 4,220 10.6 14.5°
Sets 16:55:32 0° 35° (NE) 4,863 10.8 13.7°
